Regional Weather Roundup
Issued by NWS

Home | Current Version | Previous Version | Text Only | Print | Product List | Glossary On
Versions: 1 2 3 4 5 6 7 8 9 10 11 12 13 14 15 16 17 18 19 20 21 22 23 24 25 26 27 28 29 30 31 32 33 34 35 36 37 38 39 40 41 42 43 44 45 46 47 48 49 50
000
ASHW40 PHFO 031510
RWRHI

WEATHER ROUNDUP FOR HAWAII
NATIONAL WEATHER SERVICE HONOLULU HI
500 AM HST TUE MAR 03 2015

THIS IS AN AUTOMATED REPORT THAT HAS NOT BEEN QUALITY CONTROLLED.

NOTE..."FAIR" INDICATES FEW OR NO CLOUDS BELOW 12,000 FEET WITH NO
SIGNIFICANT WEATHER AND/OR OBSTRUCTIONS TO VISIBILITY.

* - THESE SITES REPORT LIMITED FIELDS

HIZ001>004-031600-
KAUAI-NIIHAU-

CITY           SKY/WX    TMP DP  RH WIND       PRES   REMARKS
LIHUE APT      PTCLDY    73  66  78 NE14      30.04S
PORT ALLEN*      N/A     68 N/A N/A NE7G13      N/A
POIPU*         NOT AVBL
PRINCEVILLE*     N/A     72 N/A N/A MISG        N/A
KOKOLE POINT*  NOT AVBL
MOLOAA DAIRY*  NOT AVBL
WAIMEA HTS*    NOT AVBL
PUU OPAE*      NOT AVBL
PUU LUA*       NOT AVBL
MAKAHA RIDGE*  NOT AVBL
$$

HIZ005>011-031600-
OAHU-

CITY           SKY/WX    TMP DP  RH WIND       PRES   REMARKS
HONOLULU       PTCLDY    73  65  75 CALM      30.00S
KALAELOA       CLEAR     71  64  78 VRB5      30.02S
KANEOHE MCB    MOCLDY    74  67  78 E7        30.01R
WHEELER FIELD  FAIR      68  64  89 NW3       30.02S
BELLOWS*       NOT AVBL
KAHUKU*        NOT AVBL
WHEELER*       NOT AVBL
WAIANAE HARBOR NOT AVBL
DILLINGHAM*      N/A     68  66  94 MISG        N/A
KAHUKU TRN*      N/A     70  66  88 E8G15       N/A
KAWAILOA*        N/A     66  64  94 E5G15       N/A
KII*             N/A     73  70  88 NE15        N/A
MAKUA RANGE*     N/A     73  64  73 E8G18       N/A
OAHU FOREST NW NOT AVBL
SCHOFIELD BRK*   N/A    N/A N/A N/A MISG        N/A
SCHOFIELD S*   NOT AVBL
WAIANAE VLY*   NOT AVBL
KUAOKALA*      NOT AVBL
HONOULIUULI*   NOT AVBL
MOKUOLOE IS*   NOT AVBL
PALEHUA*       NOT AVBL
WAIAWA PHB*    NOT AVBL
$$

HIZ012>013-031600-
MOLOKAI-

CITY           SKY/WX    TMP DP  RH WIND       PRES   REMARKS
MOLOKAI AIRPT  CLOUDY    69  69 100 N10G21    30.02S
KALAUPAPA      NOT AVBL
MAKAPULAPAI*   NOT AVBL
MOLOKAI 1*     NOT AVBL
PUU ALII*      NOT AVBL
$$

HIZ016-031600-
KAHOOLAWE-

CITY           SKY/WX    TMP DP  RH WIND       PRES   REMARKS
KAHOOLAWE*     NOT AVBL
HAKIOAWA*      NOT AVBL
HONOKANAIA*      N/A     74  66  75 N13G24    30.01S
KANELOA*         N/A     72  68  88 MISG      29.23S
KEALIALALO*    NOT AVBL
LUA MAKIKA*    NOT AVBL
$$

HIZ014>015-031600-
LANAI-

CITY           SKY/WX    TMP DP  RH WIND       PRES   REMARKS
LANAI CITY     FAIR      68  67  96 NE17      30.04F
LANAI 1*       NOT AVBL
$$

HIZ017>028-031600-
MAUI-

CITY           SKY/WX    TMP DP  RH WIND       PRES   REMARKS
KAHULUI        CLOUDY    73  67  81 NE8       30.02S
KAPALUA-W MAUI NOT AVBL
HANA AIRPORT   MOCLDY    68  68 100 CALM      30.06S
HANA*          NOT AVBL
HALEAKALA SUMM   N/A     37  30  75 S6G24       N/A
MAALAEA BAY*   NOT AVBL
HALEAKALA*     NOT AVBL
KAUPO GAP*     NOT AVBL
KULA 1*          N/A     48  34  57 E6          N/A
$$

HIZ023>026-031600-
BIG ISLAND OF HAWAII COAST AND LOWER SLOPES-

CITY           SKY/WX    TMP DP  RH WIND       PRES   REMARKS
KAILUA KONA    CLEAR     73  63  70 CALM      29.96S
HILO           MOCLDY    68  64  87 SW3       30.01F
HONOKAA*       NOT AVBL
KAWAIHAE MWT*  NOT AVBL
KAWAIHAE*        N/A     73 N/A N/A N3          N/A
SOUTH POINT*   NOT AVBL
UPOLU AIRPORT* NOT AVBL
KAMUELA*       SUNNY     61  61 100 NE14      30.08S
HAKALAU*         N/A     43  39  87 W5G10       N/A
KALOKO-HONOKO* NOT AVBL
PALI 2*          N/A     61  55  82 N10G18      N/A
KEALAKOMO*       N/A     75  63  64 N13G22      N/A
KAUPULEHU*     NOT AVBL
KAPAPALA*        N/A     58  55  89 CALM        N/A
LOWER KAHUKU*  NOT AVBL
PUHE CS*       NOT AVBL
PUHO CS*       NOT AVBL
PTA KEAMUKU*     N/A     55  50  82 CALM        N/A
WAIKOLOA*      NOT AVBL
$$

HIZ027>028-031600-
BIG ISLAND OF HAWAII INTERIOR AND SUMMMITS-

CITY           SKY/WX    TMP DP  RH WIND       PRES   REMARKS
BRADSHAW FIELD CLOUDY    43  40  86 N1        30.28S
MK VISITOR CEN   N/A      0   0 100 MISG        N/A
MAUNA KEA*       N/A     28  -4  24 S3          N/A
MAUNA LOA*       N/A    N/A N/A N/A MISG        N/A
MAUNA LOA 1*   NOT AVBL
PTA KIPUKA*      N/A     45  43  93 E3          N/A
PTA RANGE 17*    N/A     48  41  76 E3G12       N/A
PTA WEST*        N/A     50  45  81 SE13        N/A
NENE CABIN*    NOT AVBL
AHUMOA*        NOT AVBL
PTA PORTABLE*  NOT AVBL
PUU MALI*      NOT AVBL
$$

HIC003-031600-
NORTHWEST ISLANDS-

CITY           SKY/WX    TMP DP  RH WIND       PRES   REMARKS
MIDWAY ISLAND  CLOUDY    61  55  82 NE14G23   30.40F
MIDWAY NOS*    NOT AVBL
FRENCH FRIGATE NOT AVBL
$$

PHZ110>124-180-031600-
BUOY REPORTS

STATION/POSITION TIME  TEMP    WIND        PRES    WAVE   SWELL
                       AIR SEA DIR/SP/G            HT/PER HT/DIR
                 (UTC) (F)     (DEG/KT/KT) (MB)    (FT/S) (FT/D)
BUOY 51001       NOT AVBL
BUOY 51101       1500   69 71   30/ 19/ 25 1019.0F  10/ 8
BUOY 51100       1500   74 75  180/  8/ 12 1017.1R
BUOY 51003       1400   77 78   60/ 16/ 17 1015.0F   9/12   7
BUOY 51004       1359   77 78   80/ 14/ 16 1013.5F   8/14   8/340
BARBERS PT BUOY  NOT AVBL
WAIMEA BAY BUOY  1500      77                N/A     8/12   5/320
KAILUA BAY BUOY  1500      77                N/A     7/13   3
LANAI BUOY       1500      76                N/A     3/13   2/280
BARBERS PT 2     1500      77                N/A     4/12   2/320
PAUWELA MAUI     1500      75                N/A     8/ 9   5/340
HILO             1500      76                N/A     9/13   5/340
KANEOHE BAY BUOY 1500      77                N/A     6/13   3/340
HANALEI KAUAI    NOT AVBL
KAHULUI HARBOR   1500          350/  6/  8   N/A
HONOLULU HARBOR  1500          310/  4/  5   N/A
KILO NALU        NOT AVBL
HILO HARBOR      1500          150/  3/  4   N/A
MOKUOLOE         1500           70/  7/ 10   N/A
NAWILIWILI       1500           20/  9/ 13   N/A
WHOTS BUOY       NOT AVBL
BUOY 51028       NOT AVBL
$$

......................KEY........................................
  SKY/WX - SKY CONDITIONS/PRESENT WEATHER
  TMP    - TEMPERATURE IN FAHRENHEIT
  DWPT   - DEWPOINT IN FAHRENHEIT
  RH     - RELATIVE HUMIDITY IN PERCENT
  WIND   - DIRECTION AND SPEED /MPH FOR ISLANDS...KTS FOR BUOYS/
  PRES   - MEAN SEA LEVEL PRESSURE IN INCHES OF HG
  VSB    - VISIBILITY IN MILES
  HX     - HEAT INDEX
  WCI    - WIND CHILL INDEX
  VRB    - VARIABLE WIND DIRECTION
  N/A    - NOT AVAILABLE


USA.gov is the U.S. government's official web portal to all federal, state and local government web resources and services.